Location: Bruch
(44.2051°N, 0.4120°E)
Time: 09:10:05
(UTC+00:00)

ALOS - Pass Details

Date: 29 November 2020
Orbit: 682 x 686 km, 97.9° (Epoch: 25 January)

Event Time Altitude Azimuth Distance (km) Brightness Sun altitude
Rises 05:26:03 0° 3° (N) 3,064 5.5 -18.4°
Reaches altitude 10° 05:28:30 10° 353° (N) 2,143 4.6 -18.0°
Enters shadow 05:31:47 28° 311° (NW) 1,269 3.1 -17.4°
